CPA597 RJFK-VHHH

Flight info

Callsign CPA597
Flight time 3h 30m
Altitude 36000
Route HKC Y50 IGMON A1 ELATO V522 ABBEY
Aircraft B77W/H-SDE1E2E3FGHIJ2J3J4J5M1RWXY/LB1D1

Departure

Time 2026-04-25 13:27
Airport Kagoshima Airport (RJFK)

Arrival

Time 2026-04-25 16:58
Airport Hong Kong International Airport (VHHH)
Time Latitude Longitude Altitude Speed Heading
2026-04-25 13:12 31.80389 130.71529 897 ft 0 kts 240°
2026-04-25 13:12 31.80388 130.71529 897 ft 0 kts 240°
2026-04-25 13:21 31.80392 130.71537 900 ft 4 kts 241°
2026-04-25 13:21 31.80405 130.71565 898 ft 4 kts 246°
2026-04-25 13:21 31.80414 130.71594 902 ft 4 kts 253°
2026-04-25 13:21 31.80421 130.71625 903 ft 4 kts 264°
2026-04-25 13:22 31.80419 130.71655 904 ft 4 kts 297°
2026-04-25 13:22 31.80412 130.71667 905 ft 2 kts 330°
2026-04-25 13:24 31.80413 130.71666 901 ft 1 kts 330°
2026-04-25 13:24 31.80472 130.71627 900 ft 14 kts 330°
2026-04-25 13:24 31.80555 130.71571 901 ft 15 kts 330°
2026-04-25 13:25 31.80658 130.71502 901 ft 20 kts 330°
2026-04-25 13:25 31.80786 130.71415 903 ft 22 kts 330°
2026-04-25 13:25 31.80919 130.71324 905 ft 22 kts 330°
2026-04-25 13:25 31.81052 130.71234 910 ft 22 kts 330°
2026-04-25 13:26 31.81186 130.71144 907 ft 22 kts 330°
2026-04-25 13:26 31.81319 130.71054 908 ft 22 kts 330°
2026-04-25 13:26 31.81456 130.71029 907 ft 22 kts 39°
2026-04-25 13:26 31.81444 130.71187 908 ft 23 kts 139°
2026-04-25 13:27 31.81210 130.71352 907 ft 79 kts 150°
2026-04-25 13:27 31.80417 130.71885 920 ft 181 kts 147°
2026-04-25 13:27 31.79219 130.72672 1864 ft 203 kts 146°
2026-04-25 13:27 31.78053 130.73453 3636 ft 188 kts 143°
2026-04-25 13:28 31.76942 130.74201 5036 ft 182 kts 149°
2026-04-25 13:28 31.76542 130.74414 5422 ft 193 kts 158°
2026-04-25 13:28 31.74048 130.73836 6768 ft 258 kts 220°
2026-04-25 13:28 31.73020 130.72112 8139 ft 268 kts 247°
2026-04-25 13:29 31.72480 130.70006 9656 ft 273 kts 254°
2026-04-25 13:29 31.71993 130.67842 11055 ft 278 kts 254°
2026-04-25 13:29 31.71463 130.65551 11892 ft 306 kts 253°
2026-04-25 13:30 31.70162 130.60191 12983 ft 369 kts 253°
2026-04-25 13:30 31.69226 130.57362 13802 ft 375 kts 239°
2026-04-25 13:30 31.67669 130.54915 14470 ft 377 kts 231°
2026-04-25 13:31 31.64386 130.50115 16301 ft 380 kts 232°
2026-04-25 13:31 31.62756 130.47679 17236 ft 381 kts 233°
2026-04-25 13:31 31.61122 130.45218 18145 ft 383 kts 233°
2026-04-25 13:31 31.59483 130.42736 18929 ft 385 kts 234°
2026-04-25 13:32 31.57872 130.40293 20314 ft 371 kts 234°
2026-04-25 13:32 31.56317 130.37936 21811 ft 362 kts 234°
2026-04-25 13:32 31.54782 130.35607 22895 ft 362 kts 235°
2026-04-25 13:32 31.53233 130.33253 23676 ft 367 kts 235°
2026-04-25 13:33 31.51689 130.30908 24323 ft 369 kts 234°
2026-04-25 13:33 31.49974 130.28669 24961 ft 372 kts 226°
2026-04-25 13:33 31.47886 130.26857 25659 ft 377 kts 216°
2026-04-25 13:33 31.45487 130.25549 26386 ft 384 kts 206°
2026-04-25 13:34 31.42862 130.24787 27131 ft 393 kts 198°
2026-04-25 13:34 31.40135 130.24406 27775 ft 397 kts 194°
2026-04-25 13:34 31.37362 130.24163 28354 ft 402 kts 193°
2026-04-25 13:34 31.34562 130.23978 28937 ft 404 kts 193°
2026-04-25 13:35 31.31748 130.23821 29555 ft 405 kts 193°
2026-04-25 13:35 31.28964 130.23686 30149 ft 407 kts 193°
2026-04-25 13:35 31.26131 130.23561 30573 ft 409 kts 193°
2026-04-25 13:35 31.23277 130.23438 30920 ft 412 kts 193°
2026-04-25 13:36 31.20399 130.23316 31263 ft 415 kts 193°
2026-04-25 13:36 31.17503 130.23190 31560 ft 417 kts 193°
2026-04-25 13:36 31.14638 130.22868 31863 ft 409 kts 200°
2026-04-25 13:36 31.11951 130.21967 32352 ft 392 kts 210°
2026-04-25 13:37 31.09624 130.20538 33451 ft 368 kts 219°
2026-04-25 13:37 31.07650 130.18704 34062 ft 359 kts 228°
2026-04-25 13:37 31.06080 130.16509 34391 ft 357 kts 237°
2026-04-25 13:37 31.04907 130.13911 34701 ft 360 kts 246°
2026-04-25 13:38 31.04236 130.11128 35001 ft 365 kts 255°
2026-04-25 13:38 31.03871 130.08204 35248 ft 364 kts 253°
2026-04-25 13:38 31.03217 130.05358 35421 ft 363 kts 248°
2026-04-25 13:38 31.02396 130.02578 35831 ft 360 kts 247°
2026-04-25 13:39 31.01539 129.99846 36058 ft 362 kts 246°
2026-04-25 13:39 30.99791 129.94247 36060 ft 372 kts 247°
2026-04-25 13:40 30.98045 129.88500 36075 ft 380 kts 247°
2026-04-25 13:40 30.96287 129.82622 36075 ft 388 kts 247°
2026-04-25 13:41 30.94522 129.76695 36073 ft 392 kts 248°
2026-04-25 13:41 30.92734 129.70699 36052 ft 392 kts 248°
2026-04-25 13:42 30.90941 129.64698 36064 ft 393 kts 248°
2026-04-25 13:42 30.89146 129.58705 36060 ft 392 kts 247°
2026-04-25 13:43 30.87357 129.52746 36074 ft 391 kts 248°
2026-04-25 13:43 30.85569 129.46798 36060 ft 388 kts 248°
2026-04-25 13:44 30.83790 129.40892 36044 ft 385 kts 247°
2026-04-25 13:44 30.82015 129.35013 36088 ft 384 kts 247°
2026-04-25 13:45 30.80241 129.29145 36065 ft 385 kts 247°
2026-04-25 13:45 30.78357 129.23374 36051 ft 383 kts 242°
2026-04-25 13:46 30.75823 129.17929 36055 ft 383 kts 238°
2026-04-25 13:46 30.72783 129.12841 36013 ft 384 kts 233°
2026-04-25 13:47 30.69522 129.07917 36052 ft 386 kts 233°
2026-04-25 13:47 30.66237 129.02964 36053 ft 388 kts 233°
2026-04-25 13:48 30.62947 128.97988 36054 ft 389 kts 233°
2026-04-25 13:48 30.59672 128.93029 36052 ft 390 kts 233°
2026-04-25 13:49 30.56373 128.88035 36068 ft 390 kts 233°
2026-04-25 13:49 30.53058 128.83023 36055 ft 392 kts 233°
2026-04-25 13:50 30.49738 128.78010 36052 ft 392 kts 233°
2026-04-25 13:50 30.46417 128.73003 36058 ft 392 kts 233°
2026-04-25 13:51 30.43117 128.68033 36047 ft 391 kts 233°
2026-04-25 13:51 30.39796 128.63038 36062 ft 391 kts 233°
2026-04-25 13:52 30.36478 128.58053 36053 ft 391 kts 233°
2026-04-25 13:52 30.33185 128.53112 36044 ft 390 kts 233°
2026-04-25 13:53 30.29875 128.48152 36030 ft 389 kts 233°
2026-04-25 13:53 30.26564 128.43196 36042 ft 389 kts 233°
2026-04-25 13:54 30.23245 128.38234 36061 ft 392 kts 233°
2026-04-25 13:54 30.19879 128.33208 36054 ft 398 kts 233°
2026-04-25 13:55 30.16500 128.28169 36051 ft 400 kts 233°
2026-04-25 13:55 30.13082 128.23079 36047 ft 401 kts 233°
2026-04-25 13:56 30.09657 128.17985 36078 ft 401 kts 233°
2026-04-25 13:56 30.06245 128.12916 36050 ft 398 kts 233°
2026-04-25 13:57 30.02858 128.07891 36043 ft 395 kts 233°
2026-04-25 13:57 29.99514 128.02936 36018 ft 394 kts 233°
2026-04-25 13:58 29.96117 127.97907 36051 ft 400 kts 232°
2026-04-25 13:58 29.92674 127.92816 36057 ft 404 kts 232°
2026-04-25 13:59 29.89218 127.87712 36055 ft 404 kts 232°
2026-04-25 13:59 29.85750 127.82616 36047 ft 404 kts 231°
2026-04-25 14:00 29.82111 127.77699 36040 ft 404 kts 230°
2026-04-25 14:00 29.78441 127.72854 36053 ft 404 kts 230°
2026-04-25 14:01 29.74763 127.67959 36061 ft 404 kts 230°
2026-04-25 14:01 29.71098 127.63057 36051 ft 404 kts 230°
2026-04-25 14:02 29.67436 127.58161 36052 ft 404 kts 230°
2026-04-25 14:02 29.63768 127.53260 36054 ft 405 kts 230°
2026-04-25 14:03 29.60115 127.48388 36061 ft 405 kts 230°
2026-04-25 14:03 29.56486 127.43426 36063 ft 406 kts 232°
2026-04-25 14:04 29.52996 127.38329 36036 ft 406 kts 232°
2026-04-25 14:04 29.49511 127.33222 36053 ft 407 kts 232°
2026-04-25 14:05 29.46003 127.28125 36057 ft 407 kts 232°
2026-04-25 14:05 29.42477 127.23028 36087 ft 408 kts 232°
2026-04-25 14:06 29.38972 127.17973 36069 ft 408 kts 232°
2026-04-25 14:06 29.35441 127.12887 36054 ft 407 kts 232°
2026-04-25 14:07 29.31908 127.07803 36062 ft 408 kts 232°
2026-04-25 14:07 29.28370 127.02718 36063 ft 409 kts 232°
2026-04-25 14:08 29.24824 126.97629 36081 ft 409 kts 232°
2026-04-25 14:08 29.21296 126.92571 36041 ft 409 kts 232°
2026-04-25 14:09 29.17742 126.87483 36060 ft 409 kts 232°
2026-04-25 14:09 29.14187 126.82398 36064 ft 409 kts 232°
2026-04-25 14:10 29.10624 126.77309 36061 ft 410 kts 232°
2026-04-25 14:10 29.07084 126.72259 36076 ft 410 kts 232°
2026-04-25 14:11 29.03519 126.67177 36054 ft 410 kts 232°
2026-04-25 14:11 28.99948 126.62093 36059 ft 410 kts 232°
2026-04-25 14:12 28.96363 126.57009 36063 ft 411 kts 231°
2026-04-25 14:12 28.92677 126.52006 36069 ft 412 kts 230°
2026-04-25 14:13 28.88955 126.47021 36051 ft 413 kts 230°
2026-04-25 14:13 28.85262 126.42061 36064 ft 413 kts 231°
2026-04-25 14:14 28.81550 126.37065 36065 ft 413 kts 231°
2026-04-25 14:14 28.77835 126.32065 36066 ft 413 kts 231°
2026-04-25 14:15 28.74113 126.27065 36072 ft 414 kts 231°
2026-04-25 14:15 28.70419 126.22106 36073 ft 414 kts 231°
2026-04-25 14:16 28.66688 126.17103 36073 ft 414 kts 231°
2026-04-25 14:16 28.62957 126.12096 36071 ft 415 kts 231°
2026-04-25 14:17 28.59929 126.07863 36072 ft 415 kts 232°
2026-04-25 14:17 28.56319 126.02736 36074 ft 415 kts 232°
2026-04-25 14:18 28.52114 125.96785 36065 ft 415 kts 232°
2026-04-25 14:18 28.48488 125.91678 36062 ft 415 kts 232°
2026-04-25 14:19 28.45466 125.87433 36066 ft 415 kts 232°
2026-04-25 14:19 28.41832 125.82334 36064 ft 415 kts 232°
2026-04-25 14:20 28.38196 125.77240 36065 ft 415 kts 232°
2026-04-25 14:20 28.33972 125.71327 36083 ft 415 kts 232°
2026-04-25 14:21 28.30330 125.66236 36075 ft 416 kts 232°
2026-04-25 14:21 28.27299 125.62004 36078 ft 416 kts 232°
2026-04-25 14:22 28.23649 125.56913 36075 ft 416 kts 231°
2026-04-25 14:22 28.19999 125.51829 36065 ft 416 kts 231°
2026-04-25 14:23 28.16343 125.46742 36080 ft 416 kts 231°
2026-04-25 14:23 28.12705 125.41686 36073 ft 417 kts 231°
2026-04-25 14:24 28.09036 125.36594 36075 ft 417 kts 231°
2026-04-25 14:24 28.05370 125.31511 36031 ft 417 kts 231°
2026-04-25 14:25 28.01703 125.26433 36064 ft 417 kts 231°
2026-04-25 14:25 27.98031 125.21354 36080 ft 417 kts 231°
2026-04-25 14:26 27.94377 125.16305 36074 ft 418 kts 231°
2026-04-25 14:26 27.90693 125.11222 36073 ft 418 kts 231°
2026-04-25 14:27 27.87004 125.06138 36062 ft 418 kts 231°
2026-04-25 14:27 27.83316 125.01061 36072 ft 418 kts 231°
2026-04-25 14:28 27.79624 124.95984 36084 ft 419 kts 231°
2026-04-25 14:28 27.75949 124.90938 36079 ft 419 kts 231°
2026-04-25 14:29 27.72248 124.85859 36075 ft 419 kts 231°
2026-04-25 14:29 27.68549 124.80790 36069 ft 418 kts 231°
2026-04-25 14:30 27.64847 124.75721 36071 ft 418 kts 231°
2026-04-25 14:30 27.59317 124.68158 36085 ft 419 kts 231°
2026-04-25 14:31 27.55608 124.63080 36076 ft 419 kts 231°
2026-04-25 14:31 27.51905 124.58012 36057 ft 419 kts 231°
2026-04-25 14:32 27.48200 124.52948 36068 ft 419 kts 231°
2026-04-25 14:32 27.44516 124.47920 36075 ft 419 kts 231°
2026-04-25 14:33 27.40801 124.42856 36077 ft 420 kts 231°
2026-04-25 14:33 27.37080 124.37788 36073 ft 420 kts 231°
2026-04-25 14:34 27.33357 124.32724 36067 ft 420 kts 231°
2026-04-25 14:34 27.29630 124.27660 36071 ft 420 kts 231°
2026-04-25 14:35 27.25900 124.22598 36074 ft 421 kts 231°
2026-04-25 14:35 27.22188 124.17567 36081 ft 421 kts 231°
2026-04-25 14:36 27.18446 124.12499 36074 ft 422 kts 231°
2026-04-25 14:36 27.14701 124.07434 36065 ft 421 kts 231°
2026-04-25 14:37 27.10957 124.02373 36068 ft 422 kts 231°
2026-04-25 14:37 27.07216 123.97347 36075 ft 422 kts 231°
2026-04-25 14:38 27.03418 123.92312 36074 ft 423 kts 231°
2026-04-25 14:38 26.99612 123.87274 36076 ft 424 kts 231°
2026-04-25 14:39 26.95805 123.82233 36058 ft 423 kts 231°
2026-04-25 14:39 26.92001 123.77198 36080 ft 423 kts 231°
2026-04-25 14:40 26.88193 123.72162 36072 ft 424 kts 231°
2026-04-25 14:40 26.84407 123.67162 36078 ft 424 kts 231°
2026-04-25 14:41 26.80588 123.62125 36066 ft 425 kts 231°
2026-04-25 14:41 26.76762 123.57082 36065 ft 425 kts 231°
2026-04-25 14:42 26.73582 123.52896 36067 ft 425 kts 231°
2026-04-25 14:42 26.69139 123.47050 36065 ft 425 kts 231°
2026-04-25 14:43 26.65310 123.42023 36065 ft 424 kts 231°
2026-04-25 14:43 26.61486 123.37002 36043 ft 424 kts 231°
2026-04-25 14:44 26.57659 123.31980 36054 ft 424 kts 231°
2026-04-25 14:44 26.53832 123.26962 36070 ft 424 kts 231°
2026-04-25 14:45 26.49999 123.21943 36076 ft 425 kts 231°
2026-04-25 14:45 26.46165 123.16925 36076 ft 425 kts 231°
2026-04-25 14:46 26.42352 123.11942 36024 ft 425 kts 231°
2026-04-25 14:46 26.38510 123.06926 36060 ft 425 kts 231°
2026-04-25 14:47 26.35316 123.02760 36056 ft 425 kts 231°
2026-04-25 14:47 26.30811 122.96900 36065 ft 426 kts 231°
2026-04-25 14:48 26.26945 122.91895 36063 ft 426 kts 231°
2026-04-25 14:48 26.23079 122.86892 36041 ft 427 kts 231°
2026-04-25 14:49 26.19227 122.81911 36052 ft 427 kts 231°
2026-04-25 14:49 26.15350 122.76904 36062 ft 427 kts 231°
2026-04-25 14:50 26.11464 122.71889 36063 ft 428 kts 231°
2026-04-25 14:50 26.07576 122.66878 36056 ft 428 kts 231°
2026-04-25 14:51 26.03707 122.61895 36077 ft 428 kts 231°
2026-04-25 14:51 25.99811 122.56882 36053 ft 428 kts 231°
2026-04-25 14:52 25.95912 122.51873 36060 ft 429 kts 231°
2026-04-25 14:52 25.92675 122.47715 36061 ft 429 kts 231°
2026-04-25 14:53 25.88114 122.41838 36060 ft 429 kts 231°
2026-04-25 14:53 25.84217 122.36818 36061 ft 429 kts 231°
2026-04-25 14:54 25.80348 122.31840 36055 ft 429 kts 231°
2026-04-25 14:54 25.76444 122.26825 36059 ft 430 kts 231°
2026-04-25 14:55 25.72531 122.21805 36057 ft 430 kts 231°
2026-04-25 14:55 25.68614 122.16782 36058 ft 431 kts 231°
2026-04-25 14:56 25.64720 122.11794 36060 ft 431 kts 231°
2026-04-25 14:56 25.60802 122.06784 36066 ft 430 kts 231°
2026-04-25 14:57 25.56869 122.01779 36058 ft 431 kts 231°
2026-04-25 14:57 25.52929 121.96776 36058 ft 431 kts 231°
2026-04-25 14:58 25.49011 121.91800 36057 ft 431 kts 231°
2026-04-25 14:58 25.45067 121.86794 36055 ft 432 kts 231°
2026-04-25 14:59 25.41123 121.81792 36050 ft 431 kts 231°
2026-04-25 14:59 25.37180 121.76798 36069 ft 431 kts 231°
2026-04-25 15:00 25.33253 121.71831 36061 ft 432 kts 231°
2026-04-25 15:00 25.29301 121.66836 36075 ft 432 kts 231°
2026-04-25 15:01 25.25346 121.61842 36078 ft 432 kts 231°
2026-04-25 15:01 25.21391 121.56852 36056 ft 430 kts 231°
2026-04-25 15:02 25.17453 121.51895 36093 ft 429 kts 232°
2026-04-25 15:02 25.13563 121.46878 36089 ft 430 kts 232°
2026-04-25 15:03 25.09707 121.41866 36083 ft 431 kts 232°
2026-04-25 15:03 25.05819 121.36827 36074 ft 432 kts 232°
2026-04-25 15:04 25.01916 121.31783 36041 ft 432 kts 232°
2026-04-25 15:04 24.98012 121.26745 36066 ft 433 kts 232°
2026-04-25 15:05 24.94102 121.21703 36082 ft 433 kts 232°
2026-04-25 15:06 24.88249 121.14166 36073 ft 433 kts 232°
2026-04-25 15:06 24.84325 121.09120 36068 ft 434 kts 233°
2026-04-25 15:07 24.80401 121.04071 36043 ft 434 kts 232°
2026-04-25 15:07 24.76485 120.99025 36072 ft 434 kts 232°
2026-04-25 15:08 24.72594 120.94013 36064 ft 434 kts 233°
2026-04-25 15:08 24.68671 120.88966 36061 ft 434 kts 233°
2026-04-25 15:09 24.64745 120.83922 36055 ft 434 kts 233°
2026-04-25 15:09 24.58864 120.76374 36065 ft 432 kts 233°
2026-04-25 15:10 24.56961 120.73938 36038 ft 420 kts 233°
2026-04-25 15:10 24.55048 120.71589 36071 ft 408 kts 230°
2026-04-25 15:11 24.49170 120.64911 36074 ft 404 kts 230°
2026-04-25 15:11 24.45268 120.60492 36078 ft 402 kts 230°
2026-04-25 15:12 24.39438 120.53874 36044 ft 402 kts 230°
2026-04-25 15:12 24.36864 120.50952 36054 ft 402 kts 230°
2026-04-25 15:13 24.29711 120.42844 36067 ft 405 kts 230°
2026-04-25 15:14 24.25779 120.38393 36073 ft 407 kts 230°
2026-04-25 15:14 24.21837 120.33918 36060 ft 408 kts 231°
2026-04-25 15:15 24.17941 120.29438 36020 ft 409 kts 230°
2026-04-25 15:15 24.13996 120.24952 36037 ft 409 kts 230°
2026-04-25 15:16 24.10049 120.20470 36043 ft 409 kts 230°
2026-04-25 15:16 24.04128 120.13745 36037 ft 409 kts 230°
2026-04-25 15:17 23.98228 120.07064 36038 ft 409 kts 230°
2026-04-25 15:18 23.94259 120.02607 36005 ft 409 kts 230°
2026-04-25 15:18 23.88314 119.95937 36041 ft 409 kts 230°
2026-04-25 15:19 23.85662 119.92961 36020 ft 409 kts 230°
2026-04-25 15:19 23.80372 119.87031 36041 ft 410 kts 230°
2026-04-25 15:20 23.76417 119.82602 36064 ft 410 kts 230°
2026-04-25 15:20 23.72432 119.78143 36013 ft 411 kts 230°
2026-04-25 15:21 23.68443 119.73684 36039 ft 411 kts 230°
2026-04-25 15:21 23.64452 119.69226 36048 ft 411 kts 230°
2026-04-25 15:22 23.60506 119.64721 36046 ft 409 kts 234°
2026-04-25 15:22 23.57188 119.59780 36051 ft 405 kts 241°
2026-04-25 15:23 23.54200 119.54571 36045 ft 406 kts 240°
2026-04-25 15:23 23.51193 119.49370 36014 ft 406 kts 240°
2026-04-25 15:24 23.48179 119.44173 36038 ft 406 kts 240°
2026-04-25 15:24 23.45673 119.39856 36045 ft 406 kts 240°
2026-04-25 15:25 23.42166 119.33822 36043 ft 406 kts 240°
2026-04-25 15:25 23.39145 119.28631 36039 ft 406 kts 240°
2026-04-25 15:26 23.36118 119.23435 36051 ft 406 kts 241°
2026-04-25 15:26 23.33088 119.18238 36042 ft 407 kts 241°
2026-04-25 15:27 23.30054 119.13039 36021 ft 407 kts 240°
2026-04-25 15:28 23.25522 119.05285 36043 ft 406 kts 240°
2026-04-25 15:28 23.22487 119.00099 36039 ft 406 kts 240°
2026-04-25 15:29 23.19472 118.94952 36045 ft 406 kts 241°
2026-04-25 15:29 23.16411 118.89729 36052 ft 407 kts 241°
2026-04-25 15:30 23.13386 118.84577 36044 ft 408 kts 241°
2026-04-25 15:30 23.10302 118.79324 36057 ft 417 kts 241°
2026-04-25 15:31 23.07147 118.73956 36044 ft 425 kts 240°
2026-04-25 15:31 23.03955 118.68536 36051 ft 431 kts 240°
2026-04-25 15:32 23.00713 118.63035 36051 ft 434 kts 240°
2026-04-25 15:32 22.97445 118.57497 36046 ft 436 kts 240°
2026-04-25 15:33 22.92517 118.49176 36043 ft 437 kts 240°
2026-04-25 15:33 22.89228 118.43651 36042 ft 435 kts 240°
2026-04-25 15:34 22.85979 118.38196 36046 ft 432 kts 240°
2026-04-25 15:34 22.83804 118.34543 36049 ft 430 kts 240°
2026-04-25 15:35 22.77867 118.24587 36044 ft 429 kts 240°
2026-04-25 15:36 22.73021 118.16475 36044 ft 430 kts 240°
2026-04-25 15:36 22.69769 118.11038 36041 ft 430 kts 240°
2026-04-25 15:37 22.66510 118.05594 36050 ft 432 kts 241°
2026-04-25 15:37 22.63235 118.00127 36046 ft 434 kts 241°
2026-04-25 15:38 22.59963 117.94674 36045 ft 435 kts 241°
2026-04-25 15:38 22.56680 117.89163 36044 ft 436 kts 241°
2026-04-25 15:39 22.53395 117.83639 36043 ft 437 kts 241°
2026-04-25 15:39 22.50106 117.78117 36043 ft 437 kts 241°
2026-04-25 15:40 22.47926 117.74462 36043 ft 436 kts 241°
2026-04-25 15:40 22.43531 117.67102 36038 ft 434 kts 241°
2026-04-25 15:41 22.40282 117.61665 36038 ft 433 kts 241°
2026-04-25 15:41 22.37026 117.56223 36041 ft 431 kts 241°
2026-04-25 15:42 22.34476 117.50448 36047 ft 424 kts 255°
2026-04-25 15:42 22.33166 117.44261 36048 ft 423 kts 265°
2026-04-25 15:43 22.32996 117.37907 36047 ft 424 kts 269°
2026-04-25 15:43 22.32934 117.31518 36047 ft 426 kts 269°
2026-04-25 15:44 22.32848 117.25148 36045 ft 428 kts 268°
2026-04-25 15:44 22.32995 117.18779 36032 ft 414 kts 278°
2026-04-25 15:45 22.33707 117.15820 36035 ft 402 kts 287°
2026-04-25 15:45 22.34896 117.13138 36036 ft 392 kts 297°
2026-04-25 15:45 22.37120 117.10144 36036 ft 383 kts 310°
2026-04-25 15:46 22.40787 117.07379 36058 ft 394 kts 323°
2026-04-25 15:46 22.43271 117.06004 36055 ft 397 kts 325°
2026-04-25 15:46 22.48247 117.03448 36056 ft 399 kts 326°
2026-04-25 15:47 22.53293 117.00899 36050 ft 401 kts 326°
2026-04-25 15:47 22.58352 116.98356 36063 ft 401 kts 326°
2026-04-25 15:48 22.63416 116.95798 36055 ft 402 kts 326°
2026-04-25 15:48 22.68275 116.92961 36051 ft 389 kts 314°
2026-04-25 15:49 22.71757 116.88740 36035 ft 373 kts 295°
2026-04-25 15:49 22.72844 116.86228 35687 ft 366 kts 285°
2026-04-25 15:49 22.73434 116.83565 35210 ft 362 kts 275°
2026-04-25 15:50 22.73501 116.80851 34703 ft 361 kts 265°
2026-04-25 15:50 22.73044 116.78173 34192 ft 364 kts 255°
2026-04-25 15:50 22.72073 116.75630 33635 ft 368 kts 245°
2026-04-25 15:50 22.70622 116.73334 33149 ft 372 kts 234°
2026-04-25 15:51 22.68748 116.71384 32723 ft 377 kts 223°
2026-04-25 15:51 22.68060 116.70839 32587 ft 378 kts 220°
2026-04-25 15:51 22.64015 116.68832 32071 ft 391 kts 201°
2026-04-25 15:51 22.61347 116.68356 32060 ft 397 kts 192°
2026-04-25 15:52 22.55776 116.68288 32061 ft 403 kts 187°
2026-04-25 15:52 22.50142 116.68442 32052 ft 406 kts 186°
2026-04-25 15:53 22.44488 116.68615 32048 ft 407 kts 186°
2026-04-25 15:53 22.38827 116.68793 32045 ft 407 kts 186°
2026-04-25 15:54 22.33195 116.68975 32024 ft 407 kts 187°
2026-04-25 15:54 22.27583 116.69020 32036 ft 395 kts 196°
2026-04-25 15:55 22.24939 116.68419 32042 ft 383 kts 207°
2026-04-25 15:55 22.22532 116.67308 32048 ft 371 kts 218°
2026-04-25 15:55 22.18747 116.63798 32044 ft 353 kts 239°
2026-04-25 15:56 22.17497 116.61555 32048 ft 347 kts 250°
2026-04-25 15:56 22.16735 116.59105 32052 ft 344 kts 260°
2026-04-25 15:56 22.16257 116.54016 32055 ft 347 kts 271°
2026-04-25 15:57 22.16701 116.48766 32054 ft 362 kts 278°
2026-04-25 15:57 22.17128 116.46030 31941 ft 376 kts 278°
2026-04-25 15:57 22.17586 116.43229 31626 ft 382 kts 278°
2026-04-25 15:58 22.18055 116.40394 31187 ft 384 kts 278°
2026-04-25 15:58 22.18521 116.37553 30594 ft 387 kts 278°
2026-04-25 15:58 22.18989 116.34671 29926 ft 392 kts 278°
2026-04-25 15:58 22.19456 116.31768 29271 ft 394 kts 278°
2026-04-25 15:59 22.19920 116.28864 28819 ft 391 kts 278°
2026-04-25 15:59 22.20379 116.25979 28452 ft 387 kts 278°
2026-04-25 15:59 22.20831 116.23128 28098 ft 385 kts 278°
2026-04-25 15:59 22.21275 116.20324 28057 ft 384 kts 278°
2026-04-25 16:00 22.21876 116.16513 28052 ft 386 kts 278°
2026-04-25 16:00 22.22618 116.11807 28019 ft 374 kts 278°
2026-04-25 16:00 22.23047 116.09087 27918 ft 360 kts 278°
2026-04-25 16:01 22.23459 116.06473 27707 ft 347 kts 278°
2026-04-25 16:01 22.23858 116.03936 27394 ft 338 kts 278°
2026-04-25 16:01 22.24247 116.01451 26929 ft 334 kts 278°
2026-04-25 16:01 22.24634 115.98982 26389 ft 333 kts 278°
2026-04-25 16:02 22.25021 115.96503 26224 ft 337 kts 278°
2026-04-25 16:02 22.25411 115.94006 26059 ft 337 kts 279°
2026-04-25 16:02 22.25800 115.91518 26055 ft 335 kts 279°
2026-04-25 16:02 22.26183 115.89065 26048 ft 336 kts 279°
2026-04-25 16:03 22.26571 115.86575 26050 ft 337 kts 279°
2026-04-25 16:03 22.26960 115.84080 26046 ft 337 kts 279°
2026-04-25 16:03 22.27348 115.81587 26046 ft 337 kts 279°
2026-04-25 16:03 22.27736 115.79091 26046 ft 337 kts 279°
2026-04-25 16:04 22.28123 115.76598 26047 ft 337 kts 279°
2026-04-25 16:04 22.28510 115.74107 26045 ft 337 kts 279°
2026-04-25 16:04 22.28900 115.71588 26059 ft 344 kts 279°
2026-04-25 16:04 22.29206 115.69025 26045 ft 342 kts 274°
2026-04-25 16:05 22.29262 115.66510 26036 ft 338 kts 269°
2026-04-25 16:05 22.29190 115.63994 26037 ft 334 kts 269°
2026-04-25 16:05 22.29035 115.59004 25413 ft 331 kts 269°
2026-04-25 16:06 22.28960 115.56512 24946 ft 332 kts 269°
2026-04-25 16:06 22.28887 115.54016 24491 ft 333 kts 269°
2026-04-25 16:06 22.28815 115.51517 24099 ft 332 kts 269°
2026-04-25 16:06 22.28743 115.49029 23743 ft 330 kts 269°
2026-04-25 16:07 22.28672 115.46561 23340 ft 328 kts 269°
2026-04-25 16:07 22.28649 115.45765 23205 ft 328 kts 269°
2026-04-25 16:07 22.28531 115.41660 22517 ft 325 kts 269°
2026-04-25 16:07 22.28462 115.39260 22122 ft 323 kts 269°
2026-04-25 16:08 22.28512 115.36859 21671 ft 319 kts 280°
2026-04-25 16:08 22.29224 115.34599 21190 ft 320 kts 298°
2026-04-25 16:08 22.30440 115.32587 20798 ft 320 kts 304°
2026-04-25 16:08 22.31782 115.30676 20432 ft 318 kts 306°
2026-04-25 16:09 22.33139 115.28801 20071 ft 316 kts 306°
2026-04-25 16:09 22.34494 115.26937 19711 ft 315 kts 306°
2026-04-25 16:09 22.35845 115.25082 19357 ft 313 kts 306°
2026-04-25 16:09 22.36734 115.23862 19127 ft 312 kts 306°
2026-04-25 16:10 22.38520 115.21405 18668 ft 310 kts 307°
2026-04-25 16:10 22.39842 115.19581 18331 ft 308 kts 307°
2026-04-25 16:10 22.41139 115.17785 17940 ft 306 kts 307°
2026-04-25 16:10 22.42442 115.15972 17550 ft 305 kts 307°
2026-04-25 16:11 22.43734 115.14164 17169 ft 303 kts 307°
2026-04-25 16:11 22.45012 115.12356 16781 ft 300 kts 305°
2026-04-25 16:11 22.45697 115.11069 16431 ft 300 kts 291°
2026-04-25 16:11 22.45986 115.08841 16224 ft 309 kts 266°
2026-04-25 16:12 22.45350 115.06588 16071 ft 321 kts 243°
2026-04-25 16:12 22.43892 115.04763 16010 ft 325 kts 220°
2026-04-25 16:12 22.41857 115.03687 15940 ft 330 kts 198°
2026-04-25 16:12 22.40356 115.03383 15873 ft 332 kts 191°
2026-04-25 16:13 22.36506 115.03037 15619 ft 335 kts 187°
2026-04-25 16:13 22.34938 115.02934 15527 ft 335 kts 187°
2026-04-25 16:13 22.32610 115.02784 15402 ft 334 kts 186°
2026-04-25 16:13 22.30300 115.02636 15335 ft 332 kts 186°
2026-04-25 16:14 22.28022 115.02490 15234 ft 331 kts 186°
2026-04-25 16:14 22.25728 115.02343 15140 ft 331 kts 187°
2026-04-25 16:14 22.23500 115.01897 15047 ft 323 kts 207°
2026-04-25 16:14 22.21663 115.00585 15048 ft 317 kts 231°
2026-04-25 16:15 22.20485 114.98622 15042 ft 310 kts 253°
2026-04-25 16:15 22.20116 114.96375 15040 ft 304 kts 275°
2026-04-25 16:15 22.20500 114.94152 15041 ft 302 kts 291°
2026-04-25 16:15 22.21272 114.92045 15041 ft 302 kts 294°
2026-04-25 16:16 22.22086 114.89950 15040 ft 303 kts 294°
2026-04-25 16:16 22.22894 114.87846 15032 ft 303 kts 293°
2026-04-25 16:16 22.23680 114.85750 14815 ft 301 kts 293°
2026-04-25 16:16 22.24454 114.83664 14526 ft 298 kts 293°
2026-04-25 16:17 22.25206 114.81622 14209 ft 294 kts 292°
2026-04-25 16:17 22.25584 114.79453 13677 ft 301 kts 269°
2026-04-25 16:17 22.25078 114.77243 13228 ft 308 kts 248°
2026-04-25 16:17 22.23900 114.75320 12871 ft 310 kts 230°
2026-04-25 16:18 22.22364 114.73700 12536 ft 309 kts 226°
2026-04-25 16:18 22.21323 114.72653 12302 ft 308 kts 226°
2026-04-25 16:18 22.19228 114.70560 11856 ft 306 kts 226°
2026-04-25 16:18 22.17675 114.68997 11528 ft 304 kts 226°
2026-04-25 16:19 22.16137 114.67440 11215 ft 302 kts 226°
2026-04-25 16:19 22.14612 114.65888 10891 ft 301 kts 226°
2026-04-25 16:19 22.13095 114.64337 10588 ft 299 kts 226°
2026-04-25 16:20 22.10135 114.61305 9741 ft 292 kts 225°
2026-04-25 16:20 22.08648 114.59780 9206 ft 297 kts 226°
2026-04-25 16:20 22.06039 114.56510 8540 ft 285 kts 248°
2026-04-25 16:21 22.05404 114.54490 8218 ft 283 kts 255°
2026-04-25 16:21 22.04894 114.52462 7966 ft 278 kts 256°
2026-04-25 16:21 22.04411 114.50442 7599 ft 279 kts 256°
2026-04-25 16:21 22.03946 114.48431 7359 ft 275 kts 256°
2026-04-25 16:22 22.03492 114.46440 7110 ft 271 kts 257°
2026-04-25 16:22 22.03319 114.44464 6680 ft 271 kts 272°
2026-04-25 16:22 22.03487 114.42455 6457 ft 267 kts 276°
2026-04-25 16:22 22.03724 114.40474 6129 ft 267 kts 276°
2026-04-25 16:23 22.03967 114.38497 6030 ft 267 kts 276°
2026-04-25 16:23 22.04215 114.36489 6029 ft 272 kts 276°
2026-04-25 16:23 22.04474 114.34463 6025 ft 273 kts 276°
2026-04-25 16:23 22.04741 114.32443 5992 ft 271 kts 277°
2026-04-25 16:24 22.05006 114.30439 5808 ft 269 kts 276°
2026-04-25 16:24 22.05277 114.28462 5591 ft 266 kts 277°
2026-04-25 16:24 22.05546 114.26485 5258 ft 269 kts 276°
2026-04-25 16:24 22.05812 114.24493 5022 ft 268 kts 277°
2026-04-25 16:25 22.06068 114.22523 4736 ft 270 kts 276°
2026-04-25 16:25 22.06243 114.21167 4589 ft 269 kts 277°
2026-04-25 16:25 22.06573 114.18524 4256 ft 269 kts 277°
2026-04-25 16:25 22.06814 114.16530 4108 ft 266 kts 277°
2026-04-25 16:26 22.07045 114.14569 4050 ft 261 kts 277°
2026-04-25 16:26 22.07271 114.12667 4008 ft 249 kts 277°
2026-04-25 16:26 22.07484 114.10865 3992 ft 238 kts 277°
2026-04-25 16:26 22.07694 114.09077 4019 ft 242 kts 276°
2026-04-25 16:27 22.07907 114.07281 4009 ft 240 kts 277°
2026-04-25 16:27 22.08127 114.05503 4006 ft 238 kts 276°
2026-04-25 16:27 22.08351 114.03751 4004 ft 235 kts 277°
2026-04-25 16:27 22.08571 114.02014 4008 ft 233 kts 277°
2026-04-25 16:28 22.08787 114.00303 4019 ft 235 kts 276°
2026-04-25 16:28 22.09014 113.98541 4036 ft 239 kts 277°
2026-04-25 16:28 22.09239 113.96763 4013 ft 239 kts 277°
2026-04-25 16:28 22.09459 113.94999 3962 ft 236 kts 277°
2026-04-25 16:29 22.09677 113.93245 3808 ft 237 kts 277°
2026-04-25 16:29 22.09895 113.91480 3657 ft 238 kts 277°
2026-04-25 16:29 22.10115 113.89713 3500 ft 239 kts 277°
2026-04-25 16:29 22.10550 113.88006 3288 ft 238 kts 298°
2026-04-25 16:30 22.11400 113.86481 3105 ft 238 kts 302°
2026-04-25 16:30 22.12254 113.84980 3073 ft 239 kts 301°
2026-04-25 16:30 22.13120 113.83456 3021 ft 229 kts 302°
2026-04-25 16:30 22.13897 113.82084 3039 ft 205 kts 302°
2026-04-25 16:31 22.14622 113.80805 2860 ft 197 kts 302°
2026-04-25 16:31 22.15336 113.79544 2576 ft 198 kts 302°
2026-04-25 16:31 22.16048 113.78274 2319 ft 196 kts 302°
2026-04-25 16:31 22.16910 113.77184 2003 ft 192 kts 333°
2026-04-25 16:32 22.18152 113.76644 2074 ft 196 kts 342°
2026-04-25 16:32 22.19431 113.76134 2017 ft 194 kts 342°
2026-04-25 16:32 22.20660 113.75640 2007 ft 189 kts 342°
2026-04-25 16:32 22.21890 113.75142 2009 ft 189 kts 341°
2026-04-25 16:33 22.23120 113.74647 1973 ft 190 kts 341°
2026-04-25 16:33 22.24367 113.74169 1913 ft 189 kts 343°
2026-04-25 16:33 22.25656 113.74059 1902 ft 189 kts 18°
2026-04-25 16:33 22.26654 113.74846 1892 ft 173 kts 62°
2026-04-25 16:34 22.26936 113.76036 1928 ft 162 kts 81°
2026-04-25 16:34 22.27175 113.77236 1927 ft 164 kts 78°
2026-04-25 16:34 22.27453 113.78414 1903 ft 160 kts 75°
2026-04-25 16:34 22.27788 113.79549 1907 ft 157 kts 72°
2026-04-25 16:35 22.28148 113.80686 1755 ft 164 kts 72°
2026-04-25 16:35 22.28515 113.81828 1534 ft 160 kts 72°
2026-04-25 16:35 22.28868 113.82921 1322 ft 149 kts 72°
2026-04-25 16:35 22.29211 113.83982 1148 ft 150 kts 72°
2026-04-25 16:36 22.29554 113.85046 960 ft 149 kts 71°
2026-04-25 16:36 22.29670 113.85403 899 ft 148 kts 72°
2026-04-25 16:36 22.30223 113.87117 598 ft 143 kts 72°
2026-04-25 16:36 22.30553 113.88133 403 ft 142 kts 72°
2026-04-25 16:37 22.30877 113.89125 237 ft 139 kts 72°
2026-04-25 16:37 22.31202 113.90124 141 ft 146 kts 72°
2026-04-25 16:37 22.31523 113.91133 1130 ft 151 kts 72°
2026-04-25 16:37 22.31876 113.92236 2187 ft 165 kts 72°
2026-04-25 16:38 22.32276 113.93482 2704 ft 190 kts 71°
2026-04-25 16:38 22.32748 113.94950 3045 ft 219 kts 71°
2026-04-25 16:38 22.33325 113.96487 3833 ft 226 kts 57°
2026-04-25 16:38 22.34344 113.97783 4594 ft 229 kts 44°
2026-04-25 16:39 22.35544 113.98928 5016 ft 233 kts 40°
2026-04-25 16:39 22.36807 114.00081 5012 ft 240 kts 40°
2026-04-25 16:39 22.38071 114.01234 5010 ft 237 kts 40°
2026-04-25 16:39 22.39316 114.02377 5012 ft 233 kts 40°
2026-04-25 16:40 22.40527 114.03496 5006 ft 232 kts 41°
2026-04-25 16:40 22.41797 114.04677 5073 ft 253 kts 41°
2026-04-25 16:40 22.43155 114.05943 5235 ft 261 kts 41°
2026-04-25 16:40 22.44544 114.07238 5366 ft 265 kts 40°
2026-04-25 16:41 22.45843 114.08651 5491 ft 267 kts 53°
2026-04-25 16:41 22.46488 114.09778 5583 ft 267 kts 68°
2026-04-25 16:41 22.45867 114.14153 5770 ft 264 kts 133°
2026-04-25 16:42 22.44505 114.15463 5800 ft 265 kts 144°
2026-04-25 16:42 22.43025 114.16620 5902 ft 266 kts 146°
2026-04-25 16:42 22.41500 114.17776 5954 ft 268 kts 146°
2026-04-25 16:42 22.39974 114.18927 6006 ft 267 kts 146°
2026-04-25 16:43 22.38447 114.20068 6012 ft 268 kts 147°
2026-04-25 16:43 22.36917 114.21212 5997 ft 266 kts 146°
2026-04-25 16:43 22.35395 114.22345 5874 ft 266 kts 146°
2026-04-25 16:43 22.33870 114.23481 5751 ft 266 kts 147°
2026-04-25 16:44 22.32351 114.24612 5597 ft 265 kts 147°
2026-04-25 16:44 22.30830 114.25747 5482 ft 265 kts 146°
2026-04-25 16:44 22.29318 114.26876 5392 ft 263 kts 146°
2026-04-25 16:44 22.27786 114.27931 5237 ft 259 kts 157°
2026-04-25 16:45 22.26052 114.28281 5014 ft 260 kts 186°
2026-04-25 16:45 22.24297 114.27885 4898 ft 256 kts 198°
2026-04-25 16:45 22.22754 114.26964 4678 ft 256 kts 225°
2026-04-25 16:45 22.21753 114.25384 4485 ft 256 kts 243°
2026-04-25 16:46 22.21011 114.23636 4354 ft 257 kts 246°
2026-04-25 16:46 22.20303 114.21861 4210 ft 258 kts 246°
2026-04-25 16:46 22.19607 114.20089 4119 ft 257 kts 246°
2026-04-25 16:46 22.19146 114.18911 4078 ft 256 kts 246°
2026-04-25 16:47 22.18221 114.16538 4015 ft 258 kts 246°
2026-04-25 16:47 22.17535 114.14780 4012 ft 257 kts 246°
2026-04-25 16:47 22.16842 114.13001 4009 ft 257 kts 246°
2026-04-25 16:47 22.16148 114.11225 4006 ft 257 kts 247°
2026-04-25 16:48 22.15455 114.09452 3985 ft 255 kts 248°
2026-04-25 16:48 22.15031 114.07597 3681 ft 259 kts 263°
2026-04-25 16:48 22.14887 114.05650 3508 ft 260 kts 266°
2026-04-25 16:48 22.14793 114.03712 3413 ft 259 kts 266°
2026-04-25 16:49 22.14707 114.01768 3252 ft 260 kts 266°
2026-04-25 16:49 22.14623 113.99826 3126 ft 259 kts 266°
2026-04-25 16:49 22.14542 113.97917 3077 ft 258 kts 267°
2026-04-25 16:49 22.14480 113.95978 3022 ft 258 kts 273°
2026-04-25 16:50 22.14806 113.94070 3025 ft 260 kts 284°
2026-04-25 16:50 22.15302 113.92187 3017 ft 261 kts 286°
2026-04-25 16:50 22.15822 113.90306 3014 ft 261 kts 287°
2026-04-25 16:50 22.16345 113.88433 3016 ft 261 kts 287°
2026-04-25 16:51 22.16870 113.86563 2999 ft 258 kts 287°
2026-04-25 16:51 22.17376 113.84766 2989 ft 241 kts 287°
2026-04-25 16:51 22.17830 113.83145 2969 ft 216 kts 287°
2026-04-25 16:51 22.18110 113.82140 3012 ft 199 kts 287°
2026-04-25 16:52 22.18636 113.80261 3015 ft 197 kts 287°
2026-04-25 16:52 22.19037 113.78843 3016 ft 199 kts 287°
2026-04-25 16:52 22.19444 113.77415 3008 ft 200 kts 287°
2026-04-25 16:52 22.19850 113.75987 2924 ft 198 kts 287°
2026-04-25 16:53 22.20916 113.73329 2259 ft 196 kts 320°
2026-04-25 16:53 22.22141 113.72787 1873 ft 191 kts
2026-04-25 16:53 22.23383 113.73167 1574 ft 188 kts 31°
2026-04-25 16:54 22.24516 113.73882 1543 ft 192 kts 31°
2026-04-25 16:54 22.25644 113.74628 1488 ft 187 kts 42°
2026-04-25 16:54 22.26341 113.75755 1519 ft 180 kts 66°
2026-04-25 16:54 22.26879 113.76999 1525 ft 185 kts 67°
2026-04-25 16:55 22.27359 113.78276 1508 ft 182 kts 71°
2026-04-25 16:55 22.27777 113.79544 1511 ft 179 kts 71°
2026-04-25 16:55 22.28183 113.80798 1515 ft 172 kts 72°
2026-04-25 16:55 22.28565 113.81980 1507 ft 162 kts 72°
2026-04-25 16:56 22.28937 113.83136 1309 ft 159 kts 71°
2026-04-25 16:56 22.29286 113.84215 1096 ft 149 kts 72°
2026-04-25 16:56 22.29625 113.85263 927 ft 147 kts 72°
2026-04-25 16:56 22.29962 113.86308 737 ft 146 kts 72°
2026-04-25 16:57 22.30296 113.87327 580 ft 142 kts 72°
2026-04-25 16:57 22.30511 113.87995 460 ft 142 kts 73°
2026-04-25 16:57 22.30940 113.89311 174 ft 138 kts 72°
2026-04-25 16:57 22.31250 113.90282 41 ft 133 kts 71°
2026-04-25 16:58 22.31514 113.91098 40 ft 90 kts 71°
2026-04-25 16:58 22.31651 113.91537 40 ft 32 kts 79°
2026-04-25 16:58 22.31647 113.91744 40 ft 17 kts 101°
2026-04-25 16:58 22.31630 113.91818 40 ft 3 kts 119°
2026-04-25 16:59 22.31610 113.91829 40 ft 5 kts 161°
2026-04-25 16:59 22.31565 113.91845 40 ft 9 kts 161°
2026-04-25 16:59 22.31497 113.91870 40 ft 11 kts 161°
2026-04-25 16:59 22.31426 113.91896 40 ft 11 kts 161°
2026-04-25 17:00 22.31353 113.91923 40 ft 12 kts 161°
2026-04-25 17:00 22.31266 113.91955 40 ft 15 kts 161°
2026-04-25 17:00 22.31157 113.91996 40 ft 18 kts 161°
2026-04-25 17:00 22.31028 113.92045 40 ft 21 kts 160°
2026-04-25 17:01 22.30890 113.92096 40 ft 18 kts 161°
2026-04-25 17:01 22.30771 113.92141 40 ft 18 kts 161°
2026-04-25 17:01 22.30684 113.92226 40 ft 18 kts 88°
2026-04-25 17:01 22.30726 113.92357 40 ft 18 kts 70°
2026-04-25 17:02 22.30768 113.92488 40 ft 18 kts 71°
2026-04-25 17:02 22.30810 113.92618 40 ft 18 kts 71°
2026-04-25 17:02 22.30878 113.92731 40 ft 18 kts 32°
2026-04-25 17:02 22.30991 113.92794 40 ft 18 kts 26°
2026-04-25 17:03 22.31104 113.92853 40 ft 16 kts 25°
2026-04-25 17:03 22.31186 113.92929 40 ft 16 kts 63°
2026-04-25 17:03 22.31244 113.92986 40 ft 7 kts 356°
2026-04-25 17:03 22.31268 113.92980 40 ft 3 kts 343°
2026-04-25 17:04 22.31286 113.92975 40 ft 2 kts 342°
2026-04-25 17:04 22.31301 113.92969 40 ft 1 kts 341°